Location: Bj�rn�ya
(74.5000°N, 19.0000°E)
Time: 08:37:39
(UTC+01:00)

Envisat - Visible Passes

Search period start: 29 January 2022 00:00
Search period end: 08 February 2022 00:00
Orbit: 764 x 766 km, 98.2° (Epoch: 28 January)

Date Brightness Start Highest point End Pass type
(mag) Time Alt. Az. Time Alt. Az. Time Alt. Az.
29 Jan 6.0 01:43:04 10° NE 01:44:53 12° NE 01:46:41 10° ENE visible
29 Jan 5.2 03:21:39 10° NNE 03:25:49 24° E 03:29:57 10° SE visible
29 Jan 3.8 05:00:55 10° NNE 05:05:55 52° ESE 05:10:54 10° S visible
29 Jan 2.9 06:40:10 10° NNE 06:45:17 78° NW 06:50:24 10° SW visible
29 Jan 3.3 08:19:12 10° NE 08:24:05 47° NNW 08:28:57 10° W visible
29 Jan 3.5 14:53:38 10° SSE 14:58:43 67° WSW 15:03:49 10° NNW visible
29 Jan 5.0 16:34:03 10° SSW 16:38:35 31° W 16:43:06 10° NNW visible
29 Jan 5.9 18:16:24 10° W 18:19:14 15° WNW 18:22:06 10° NNW visible
30 Jan 5.6 02:44:47 10° NNE 02:48:20 19° ENE 02:51:52 10° ESE visible
30 Jan 4.3 04:23:56 10° NNE 04:28:44 39° E 04:33:31 10° SSE visible
30 Jan 3.1 06:03:13 10° NNE 06:08:22 83° ESE 06:13:29 10° SSW visible
30 Jan 3.1 07:42:21 10° NE 07:47:20 55° NW 07:52:19 10° WSW visible
30 Jan 4.5 15:56:29 10° SSW 16:01:18 41° W 16:06:09 10° NNW visible
30 Jan 5.7 17:38:01 10° WSW 17:41:40 19° WNW 17:45:20 10° NNW visible
31 Jan 5.8 02:08:02 10° NNE 02:10:44 14° ENE 02:13:25 10° E visible
31 Jan 4.9 03:46:58 10° NNE 03:51:26 29° E 03:55:54 10° SSE visible
31 Jan 3.4 05:26:15 10° NNE 05:31:21 64° ESE 05:36:25 10° SSW visible
31 Jan 3.0 07:05:28 10° NE 07:10:33 67° NW 07:15:37 10° SW visible
31 Jan 3.4 08:44:24 10° NE 08:49:14 43° NNW 08:54:01 10° W visible
31 Jan 3.9 15:19:08 10° S 15:24:08 55° WSW 15:29:11 10° NNW visible
31 Jan 5.3 16:59:58 10° SW 17:04:12 25° W 17:08:26 10° NNW visible
31 Jan 6.0 18:43:02 10° W 18:45:05 12° WNW 18:47:08 10° NNW visible
01 Feb 6.0 01:31:47 10° NE 01:33:01 11° NE 01:34:15 10° ENE visible
01 Feb 5.3 03:10:03 10° NNE 03:14:02 22° ENE 03:18:01 10° SE visible
01 Feb 4.0 04:49:17 10° NNE 04:54:14 48° ESE 04:59:11 10° S visible
01 Feb 2.9 06:28:33 10° NNE 06:33:41 84° NW 06:38:48 10° SW visible
01 Feb 3.2 08:07:37 10° NE 08:12:32 49° NNW 08:17:25 10° WSW visible
01 Feb 4.8 16:22:14 10° SSW 16:26:51 34° W 16:31:29 10° NNW visible
01 Feb 5.8 18:04:18 10° WSW 18:07:25 16° WNW 18:10:33 10° NNW visible
02 Feb 5.7 02:33:12 10° NNE 02:36:31 17° ENE 02:39:50 10° ESE visible
02 Feb 4.5 04:12:18 10° NNE 04:17:01 36° E 04:21:43 10° SSE visible
02 Feb 3.2 05:51:36 10° NNE 05:56:44 77° ESE 06:01:51 10° SSW visible
02 Feb 3.1 07:30:46 10° NE 07:35:46 58° NW 07:40:47 10° WSW visible
02 Feb 4.3 15:44:43 10° S 15:49:36 45° W 15:54:31 10° NNW visible
02 Feb 5.6 17:26:02 10° SW 17:29:53 21° WNW 17:33:44 10° NNW visible
02 Feb 6.3 19:10:37 10° NW 19:10:58 10° NW 19:11:19 10° NW visible
03 Feb 5.9 01:56:32 10° NNE 01:58:53 13° ENE 02:01:14 10° E visible
03 Feb 5.0 03:35:21 10° NNE 03:39:42 27° E 03:44:02 10° SE visible
03 Feb 3.6 05:14:37 10° NNE 05:19:41 58° ESE 05:24:44 10° S visible
03 Feb 3.0 06:53:52 10° NE 06:58:58 72° NW 07:04:03 10° SW visible
03 Feb 3.4 08:32:50 10° NE 08:37:41 45° NNW 08:42:31 10° W visible
03 Feb 3.7 15:07:26 10° S 15:12:28 60° WSW 15:17:32 10° NNW visible
03 Feb 5.2 16:48:05 10° SW 16:52:26 28° W 16:56:49 10° NNW visible
03 Feb 6.0 18:30:48 10° W 18:33:14 13° WNW 18:35:40 10° NNW visible
04 Feb 5.4 02:58:26 10° NNE 03:02:16 21° ENE 03:06:04 10° ESE visible
04 Feb 4.1 04:37:39 10° NNE 04:42:32 44° E 04:47:25 10° S visible
04 Feb 3.0 06:16:55 10° NNE 06:22:04 90° NW 06:27:11 10° SW visible
04 Feb 3.2 07:56:02 10° NE 08:00:58 52° NNW 08:05:54 10° WSW visible
04 Feb 4.7 16:10:25 10° SSW 16:15:07 37° W 16:19:52 10° NNW visible
04 Feb 5.8 17:52:14 10° WSW 17:55:36 17° WNW 17:58:59 10° NNW visible
05 Feb 5.8 02:21:37 10° NNE 02:24:42 16° ENE 02:27:46 10° ESE visible
05 Feb 4.7 04:00:41 10° NNE 04:05:18 33° E 04:09:54 10° SSE visible
05 Feb 3.3 05:39:58 10° NNE 05:45:05 71° ESE 05:50:12 10° SSW visible
05 Feb 3.0 07:19:09 10° NE 07:24:12 62° NW 07:29:14 10° WSW visible
05 Feb 4.1 15:32:58 10° S 15:37:55 49° WSW 15:42:53 10° NNW visible
05 Feb 5.5 17:14:04 10° SW 17:18:05 23° WNW 17:22:08 10° NNW visible
05 Feb 6.2 18:57:43 10° WNW 18:59:05 11° NW 19:00:28 10° NW visible
06 Feb 6.0 01:45:05 10° NNE 01:47:02 12° ENE 01:48:58 10° E visible
06 Feb 5.2 03:23:43 10° NNE 03:27:56 25° E 03:32:07 10° SE visible
06 Feb 3.8 05:02:59 10° NNE 05:08:00 54° ESE 05:13:01 10° S visible
06 Feb 2.9 06:42:15 10° NNE 06:47:22 77° NW 06:52:28 10° SW visible
06 Feb 3.3 08:21:16 10° NE 08:26:08 47° NNW 08:31:00 10° W visible
06 Feb 5.1 16:36:13 10° SSW 16:40:41 30° W 16:45:12 10° NNW visible
06 Feb 5.9 18:18:37 10° W 18:21:23 14° WNW 18:24:09 10° NNW visible
07 Feb 5.6 02:46:51 10° NNE 02:50:28 19° ENE 02:54:04 10° ESE visible
07 Feb 4.3 04:26:01 10° NNE 04:30:50 40° E 04:35:39 10° SSE visible
07 Feb 3.1 06:05:18 10° NNE 06:10:27 85° ESE 06:15:34 10° SSW visible
07 Feb 3.1 07:44:25 10° NE 07:49:24 54° NW 07:54:23 10° WSW visible
07 Feb 4.5 15:58:37 10° SSW 16:03:25 40° W 16:08:14 10° NNW visible
07 Feb 5.8 17:40:12 10° WSW 17:43:47 19° WNW 17:47:24 10° NNW visible
